Location: Winthrop
(48.4780°N, 120.1850°W)
Time: 23:02:35
(UTC-07:00)

A-11 Canister half - Pass Details

Date: 10 June 2023
Orbit: 1515 x 1684 km, 47.2° (Epoch: 29 September)

Event Time Altitude Azimuth Distance (km) Brightness Sun altitude
Exits shadow 00:53:48 25° 188° (S) 2,857 9.8 -18.5°
Maximum altitude 00:58:37 39° 141° (SE) 2,261 9.5 -18.5°
Drops below altitude 10° 01:07:13 10° 77° (ENE) 3,777 11.2 -18.5°
Sets 01:10:30 0° 70° (ENE) 4,741 11.9 -18.5°
